SIRIUSSAT-2 (43596 NORAD) Tracking and Keplerian Element Data

This shows tracking and keplerian element data for the satellite.

Feedback or suggestion? Click here.




ElementValue
Catalog43596
NameSIRIUSSAT-2
Epoch Orbit3938
Epoch Day115.55265505
Epoch Year2019
RAAN256.7488
Inclination51.6376
Eccentricity0.0004124
Argument of Perigee266.9785
Mean Anonmoly93.0736
Mean Motion15.59601755
Decay Rate0.00013757
L11 43596U 98067PH 19115.55265505 .00013757 00000-0 17545-3 0 9995
L22 43596 51.6376 256.7488 0004124 266.9785 93.0736 15.59601755 39386

Live tracking and technical data element details for SIRIUSSAT-2 (NORAD 43596). SIRIUSSAT-2 can be tracked NOW for your location showing map with azimuth and elevation plus other details from your city location.

Track the satellite on the map from your city or location and see movement details for azimuth, elevation, latitude, longitude, range, height, and movement on the map or in text.







IsCatalogInMostPopularTable: catalog: 43596, numindb: 125
Update: records affected: 1



GetName: 43596 SIRIUSSAT-2

Hit Count: updated at: Fri, 26 Apr 2019 15:43:25 GMT